#timestamp,LO_Frequency,Hit,StdDev 
1649250015.3,286046996.3,N
1649250035.2,286046995.5,N
1649250055.9,286046998.0,N
1649250075.7,286046995.2,Y
1649250095.6,286047000.3,P
1649250115.4,286047000.3,N
1649250135.2,286046998.3,N
1649250155.1,286046999.1,N
1649250156.0,286046999.1,N
1649250175.8,286047000.4,N
1649250195.7,286047000.2,N
1649250215.5,286047000.5,N
1649250235.3,286046999.3,N
1649250255.2,286046996.8,N
1649250275.0,286046997.3,N
1649250275.9,286046997.3,N
1649250295.7,286047001.1,N
1649250315.6,286047002.7,N
1649250335.4,286047001.5,N
1649250355.3,286047003.8,N
1649250375.1,286047003.8,N
1649250376.0,286047003.8,N
1649250395.8,286047000.0,N
1649250415.7,286047000.5,N
1649250435.5,286047002.5,N
1649250455.3,286047003.8,N
1649250475.2,286047002.1,N
1649250495.0,286047003.6,N
1649250495.9,286047003.6,N
1649250515.8,286047002.5,N
1649250535.6,286047002.4,N
1649250555.4,286046996.6,N
1649250575.3,286046995.4,N
1649250595.1,286046994.9,N
1649250615.8,286046997.7,N
1649250635.7,286046997.6,N
1649250655.5,286046995.4,N
1649250675.4,286046995.0,N
1649250695.2,286046996.1,N
1649250715.0,286046993.3,N
1649250715.9,286046993.3,N
1649250735.8,286046995.7,N
1649250755.6,286046995.8,N
1649250775.5,286046995.3,N
1649250795.3,286046997.9,N
1649250815.1,286046995.4,N
1649250835.9,286046996.1,N
1649250855.7,286046995.8,N
1649250875.5,286046996.3,N
1649250895.4,286046993.3,N
1649250915.2,286046991.7,N
1649250935.1,286046994.6,N
1649250936.0,286046994.6,N
1649250955.8,286046990.7,N
1649250975.6,286046990.4,N
1649250995.5,286046993.2,N
1649251015.3,286046990.8,N
1649251035.1,286046991.5,N
1649251055.9,286046990.5,N
1649251075.7,286046992.5,N
1649251095.6,286046991.6,Y
1649251115.4,286046996.3,P
1649251135.2,286046993.8,P
1649251155.1,286046995.7,P
1649251156.0,286046995.7,Y
1649251175.8,286047003.3,P
1649251195.6,286047001.8,N
1649251215.5,286047000.6,N
1649251235.3,286047000.6,N
1649251255.2,286047000.6,N
1649251275.9,286047000.2,N
1649251295.7,286046999.9,N
1649251315.6,286047000.3,N
1649251335.4,286047000.1,N
1649251355.2,286047000.0,N
1649251375.1,286047000.5,N
1649251376.0,286047000.5,N
1649251395.8,286047000.9,N
1649251415.7,286047002.4,N
1649251435.5,286047001.9,N
1649251455.3,286047000.2,N
1649251475.2,286047002.8,N
1649251495.0,286047000.5,N
1649251495.9,286047000.5,N
1649251515.8,286047000.7,N
1649251535.6,286046999.2,N
1649251555.4,286046995.4,Y
1649251575.3,286046995.4,P
1649251595.1,286046997.2,N
1649251615.8,286046999.1,N
1649251635.7,286046995.7,N
1649251655.5,286046996.2,N
1649251675.4,286046993.9,Y
1649251695.2,286047001.0,P
1649251715.0,286047002.2,N
1649251715.9,286047002.2,N
1649251735.8,286047001.6,N
1649251755.6,286046999.9,N
1649251775.4,286047006.3,Y
1649251795.3,286047010.4,P
1649251815.1,286047006.6,N
1649251835.9,286047006.6,N
1649251855.7,286047005.5,N
1649251875.5,286047004.1,N
1649251895.4,286047001.7,N
1649251915.2,286047002.9,N
1649251935.0,286047001.7,N
1649251936.0,286047001.7,N
1649251955.8,286047001.4,N
1649251975.6,286047001.4,N
1649251995.5,286047003.1,N
1649252015.3,286047004.6,N
1649252035.1,286047007.7,N
1649252055.9,286047008.5,Y
1649252075.7,286047012.3,P
1649252095.6,286047010.3,N
1649252115.4,286047010.1,N
1649252135.2,286047009.5,Y
1649252155.1,286047000.8,P
1649252156.0,286047000.8,N
1649252175.8,286046996.9,N
1649252195.6,286046997.6,N
1649252215.5,286046993.7,N
1649252235.3,286046992.3,N
1649252255.2,286046990.8,N
1649252275.9,286046989.4,N
1649252295.7,286046990.0,N
1649252315.6,286046991.1,N
1649252335.4,286046989.2,N
1649252355.2,286046987.6,N
1649252375.1,286046987.7,N
1649252376.0,286046987.7,N
1649252395.8,286046987.7,N
1649252415.7,286046988.2,N
1649252435.5,286046987.7,N
1649252455.3,286046990.0,N
1649252475.2,286046986.9,N
1649252495.0,286046995.2,N
1649252495.9,286046995.2,N
1649252515.7,286046998.6,N
1649252535.6,286046996.7,N
1649252555.4,286046998.7,N
1649252575.3,286046998.9,N
1649252595.1,286046999.4,N
1649252596.0,286046999.4,N
1649252615.8,286046996.7,N
1649252635.7,286046997.5,N
1649252655.5,286046996.9,N
1649252675.3,286046997.3,N
1649252695.2,286046996.0,N
1649252715.0,286046994.9,N
1649252715.9,286046994.9,N
1649252735.8,286046998.9,N
1649252755.6,286047004.8,N
1649252775.4,286047006.3,N
1649252795.3,286047010.0,N
1649252815.1,286047013.1,N
1649252835.8,286047015.5,N
1649252855.7,286047016.0,N
1649252875.5,286047018.0,N
1649252895.4,286047022.7,N
1649252915.2,286047024.0,N
1649252935.0,286047020.8,N
1649252935.9,286047020.8,N
1649252955.8,286047022.3,N
1649252975.6,286047021.1,N
1649252995.4,286047017.9,N
1649253015.3,286047017.8,N
1649253035.1,286047018.7,N
1649253055.9,286047017.2,N
1649253075.7,286047015.0,N
1649253095.5,286047016.4,N
1649253115.4,286047010.9,N
1649253135.2,286047011.4,N
1649253155.0,286047015.8,N
1649253155.9,286047015.8,N
1649253175.8,286047025.8,N
1649253195.6,286047028.9,Y
1649253215.5,286047011.8,P
1649253235.3,286047008.2,P
1649253255.1,286047005.2,N
1649253275.9,286047002.4,N
1649253295.7,286046999.0,N
1649253315.5,286046995.5,N
1649253335.4,286046990.6,N
1649253355.2,286046989.0,N
1649253375.1,286046988.0,N
1649253376.0,286046988.0,N
1649253395.8,286046986.1,N
1649253415.6,286046986.1,N
1649253435.5,286046983.9,N
1649253455.3,286046982.4,N
1649253475.1,286046983.0,N
1649253495.9,286046982.9,N
1649253515.7,286046980.8,N
1649253535.6,286046983.1,N
1649253555.4,286046984.9,N
1649253575.2,286046984.1,N
1649253595.1,286046984.9,N
1649253596.0,286046984.9,N
